Flag for Madagascar Weather past 2 weeks in Antananarivo, Madagascar

Now
59 °F

Passing clouds.


Feels Like: 59 °F
Forecast: 58 / 74 °F
Wind: 5 mph from East

Location: Antananarivo / Ivato

Current Time: May 26, 2015 at 3:08:28 AM

Latest Report: May 26, 2015 at 2:00 AM


Visibility: N/A

Pressure: 30.21 "Hg

Humidity: 100%

Dew point: 59 °F

Location of AntananarivoLocation

Historic Weather in Antananarivo — Graph

°F

Antananarivo temperature yesterday

Maximum temperature yesterday: 77 °F (at 1:00 PM)
Minimum temperature yesterday: 57 °F (at 2:00 AM)
Average temperature yesterday: 65 °F

Past Weeks' High & Low Weather Summary

 TemperatureHumidityPressure
High81 °F (May 12, 2:30 PM)100% (May 12, 12:00 AM)30.33 "Hg (May 12, 12:00 AM)
Low52 °F (May 16, 6:00 AM)37% (May 14, 2:00 PM)30.09 "Hg (May 13, 2:30 PM)
Average65 °F87%30.23 "Hg
* Reported May 11 2:00 AM — May 26 2:00 AM, Antananarivo, Weather by CustomWeather, © 2015

Note: Actual official high and low records may vary slightly from our data, if they occured in-between our weather recording intervals... More about our weather records

Advertising

Antananarivo weather history for previous 24 hours

 ConditionsComfort  
Time TempWeatherWind HumidityBarometerVisibility
2:00 AM
Tue, May 26
59 °FPassing clouds.5 mph100%30.21 "HgN/A
1:30 AM61 °FPassing clouds.No wind100%30.24 "HgN/A
1:00 AM61 °FPassing clouds.No wind100%30.24 "HgN/A
12:00 AM59 °FPassing clouds.3 mph100%30.24 "HgN/A
11:00 PM
Mon, May 25
59 °FPassing clouds.3 mph100%30.24 "HgN/A
10:30 PM59 °FPassing clouds.2 mph100%30.24 "HgN/A
10:00 PM59 °FPassing clouds.6 mph100%30.24 "HgN/A
9:30 PM59 °FPassing clouds.6 mph100%30.24 "HgN/A
9:00 PM61 °FPassing clouds.7 mph100%30.24 "HgN/A
8:30 PM61 °FPassing clouds.7 mph100%30.21 "HgN/A
8:00 PM61 °FPassing clouds.7 mph100%30.21 "HgN/A
7:30 PM63 °FPassing clouds.8 mph100%30.21 "HgN/A
7:00 PM63 °FPassing clouds.7 mph100%30.21 "HgN/A
6:30 PM64 °FPassing clouds.7 mph94%30.18 "HgN/A
6:00 PM64 °FPassing clouds.7 mph88%30.18 "HgN/A
5:30 PM68 °FPassing clouds.10 mph78%30.18 "HgN/A
5:00 PM70 °FScattered clouds.8 mph73%30.18 "HgN/A
4:30 PM73 °FScattered clouds.9 mph65%30.15 "HgN/A
4:00 PM72 °FScattered clouds.No wind69%30.15 "HgN/A
3:30 PM72 °FPartly sunny.No wind65%30.15 "HgN/A
3:00 PM73 °FPartly sunny.No wind57%30.15 "HgN/A
2:30 PM77 °FPartly sunny.No wind57%30.15 "HgN/A
2:00 PM75 °FPartly sunny.No wind54%30.15 "HgN/A
1:30 PM75 °FPartly sunny.3 mph61%30.18 "HgN/A
1:00 PM77 °FPartly sunny.1 mph65%30.18 "HgN/A
12:30 PM75 °FPartly sunny.No wind61%30.18 "HgN/A
12:00 PM75 °FScattered clouds.No wind61%30.21 "HgN/A
11:30 AM73 °FScattered clouds.No wind69%30.21 "HgN/A
11:00 AM73 °FScattered clouds.2 mph74%30.21 "HgN/A
10:30 AM72 °FScattered clouds.No wind78%30.24 "HgN/A
10:00 AM72 °FScattered clouds.No wind78%30.24 "HgN/A
9:30 AM68 °FScattered clouds.No wind88%30.24 "HgN/A
9:00 AM66 °FScattered clouds.No wind94%30.24 "HgN/A
8:30 AM63 °FScattered clouds.No wind100%30.24 "HgN/A
8:00 AM61 °FPartly sunny.No wind100%30.24 "HgN/A
7:30 AM59 °FPartly sunny.5 mph100%30.24 "HgN/A
7:00 AM59 °FPartly sunny.5 mph100%30.21 "HgN/A
6:30 AM57 °FPartly sunny.No wind100%30.21 "HgN/A
6:00 AM57 °FPassing clouds.No wind100%30.21 "HgN/A
5:30 AM57 °FPassing clouds.No wind100%30.21 "HgN/A
5:00 AM57 °FPassing clouds.No wind100%30.18 "HgN/A
4:30 AM57 °FPassing clouds.No wind100%30.18 "HgN/A
4:00 AM57 °FPassing clouds.No wind100%30.18 "HgN/A
3:00 AM57 °FPassing clouds.No wind100%30.18 "HgN/A
Weather by CustomWeather, © 2015

See weather overviewHow to use our weather pages